Regional Weather Roundup
Issued by NWS

Home | Current Version | Previous Version | Graphics & Text | Print | Product List | Glossary On
Versions: 1 2 3 4 5 6 7 8 9 10 11 12 13 14 15 16 17 18 19 20 21 22 23 24 25 26 27 28 29 30 31 32 33 34 35 36 37 38 39 40 41 42 43 44 45 46 47 48 49 50
000
ASUS43 KLMK 180710
RWRKY
KENTUCKY REGIONAL WEATHER ROUNDUP
NATIONAL WEATHER SERVICE LOUISVILLE KY
300 AM EDT SAT APR 18 2015

NOTE "FAIR" INDICATES FEW OR NO CLOUDS BELOW 12,000 FEET
WITH NO SIGNIFICANT WEATHER AND/OR OBSTRUCTIONS TO VISIBILITY.

KYZ001>023-026-027-061>063-070>075-180800-
WESTERN AND SOUTH CENTRAL KENTUCKY

CITY           SKY/WX    TMP DP  RH WIND       PRES   REMARKS
PADUCAH        MOCLDY    58  56  93 CALM      30.00S FOG
HENDERSON      CLEAR     55  54  94 CALM      30.01F
OWENSBORO      CLEAR     60  59  97 CALM      30.02F FOG
HOPKINSVILLE   CLEAR     58  57  98 E2        30.01S
BOWLING GREEN  CLEAR     56  54  93 CALM      30.02F FOG
GLASGOW        CLEAR     55  55 100 CALM      30.03F FOG
$$

KYZ024-025-028>034-038-045-046-053-180800-
NORTH CENTRAL KENTUCKY

CITY           SKY/WX    TMP DP  RH WIND       PRES   REMARKS
LOUISVILLE/SDF CLEAR     61  57  87 CALM      30.04F
LOUISVILLE/LOU CLEAR     59  56  89 CALM      30.05F
FORT KNOX      CLEAR     56  55  96 CALM      30.02F FOG
$$

KYZ035>037-039>044-047>052-055>060-089>105-180800-
NORTHEAST KENTUCKY

CITY           SKY/WX    TMP DP  RH WIND       PRES   REMARKS
LEXINGTON      CLEAR     54  54 100 N3        30.05R
COVINGTON      PTCLDY    58  43  57 CALM      30.05R
FRANKFORT      CLEAR     54  52  93 CALM      30.04R FOG
$$

KYZ054-064>069-076>088-106>120-180800-
SOUTHEAST KENTUCKY

CITY           SKY/WX    TMP DP  RH WIND       PRES   REMARKS
JACKSON        PTCLDY    61  53  75 CALM      30.04R
LONDON         CLEAR     57  51  80 CALM      30.04S
SOMERSET       CLEAR     54  54 100 CALM      30.06S FOG
MIDDLESBORO    CLEAR     54  54 100 CALM      30.05R
MONTICELLO     FOG       54  54 100 CALM      30.07S VSB 3/4
$$



USA.gov is the U.S. government's official web portal to all federal, state and local government web resources and services.